sat.trackr.live / text

‹ back to catalog

STARLINK-35792

NORAD 67092 · 2025-298T

PAYLOAD ACTIVE UNKNOWN

§ Identity

Operator
Country
US
Launch date
2025-12-14
Launch site
AFWTR
Launch vehicle
Mass (kg)
RCS (m²)

Purposes: comms

External: N2YO · Heavens-Above · Gunter

§ Orbital elements

Epoch: 2026-05-25T02:55:27.160032Z

Period
96.11 min
Inclination
70.0011°
Eccentricity
0.0003665
Mean motion
14.98335427 rev/d
Perigee alt
569.5 km
Apogee alt
574.6 km
Semi-major
6,950.2 km
B*
2.7225e-4
RAAN
181.8434°
Arg perigee
267.0669°
Mean anomaly
93.0071°
Rev number
2,466

§ Raw data

STARLINK-357921 67092U 25298T   26145.12184213  .00003157  00000+0  27225-3 0  99962 67092  70.0011 181.8434 0003665 267.0669  93.0071 14.98335427 24664

JSON: /api/v1/satellites/67092 · /tle

For live sub-satellite position, see the globe view (requires WebGL).

§ Visibility from observer

Set your observer location to see the next 7 days of passes ≥ 10°. The values pass through the URL so the page stays shareable.

No JS? Fill the form by hand. The geolocation button needs JavaScript.